Year,Month,Day,Hour,Minute,Value (Times are PST for temperature in C)
2012,10,16,00,00,11.70
2012,10,16,00,01,11.70
2012,10,16,00,02,11.70
2012,10,16,00,03,11.70
2012,10,16,00,04,11.60
2012,10,16,00,05,11.70
2012,10,16,00,06,11.70
2012,10,16,00,07,11.70
2012,10,16,00,08,11.70
2012,10,16,00,09,11.70
2012,10,16,00,10,11.70
2012,10,16,00,11,11.80
2012,10,16,00,12,11.90
2012,10,16,00,13,12.00
2012,10,16,00,14,12.10
2012,10,16,00,15,12.20
2012,10,16,00,16,12.20
2012,10,16,00,17,12.30
2012,10,16,00,18,12.40
2012,10,16,00,19,12.50
2012,10,16,00,20,12.70
2012,10,16,00,21,12.80
2012,10,16,00,22,12.90
2012,10,16,00,23,13.10
2012,10,16,00,24,13.20
2012,10,16,00,25,13.20
2012,10,16,00,26,13.20
2012,10,16,00,27,13.10
2012,10,16,00,28,13.10
2012,10,16,00,29,13.00
2012,10,16,00,30,13.00
2012,10,16,00,31,13.00
2012,10,16,00,32,12.90
2012,10,16,00,33,13.00
2012,10,16,00,34,13.00
2012,10,16,00,35,13.20
2012,10,16,00,36,13.30
2012,10,16,00,37,13.30
2012,10,16,00,38,13.40
2012,10,16,00,39,13.40
2012,10,16,00,40,13.30
2012,10,16,00,41,13.20
2012,10,16,00,42,13.10
2012,10,16,00,43,13.10
2012,10,16,00,44,13.10
2012,10,16,00,45,13.10
2012,10,16,00,46,13.10
2012,10,16,00,47,13.20
2012,10,16,00,48,13.20
2012,10,16,00,49,13.30
2012,10,16,00,50,13.30
2012,10,16,00,51,13.30
2012,10,16,00,52,13.40
2012,10,16,00,53,13.40
2012,10,16,00,54,13.40
2012,10,16,00,55,13.50
2012,10,16,00,56,13.50
2012,10,16,00,57,13.40
2012,10,16,00,58,13.40
2012,10,16,00,59,13.40
2012,10,16,01,00,13.40
2012,10,16,01,01,13.40
2012,10,16,01,02,13.40
2012,10,16,01,03,13.40
2012,10,16,01,04,13.50
2012,10,16,01,05,13.50
2012,10,16,01,06,13.50
2012,10,16,01,07,13.60
2012,10,16,01,08,13.60
2012,10,16,01,09,13.60
2012,10,16,01,10,13.60
2012,10,16,01,11,13.60
2012,10,16,01,12,13.60
2012,10,16,01,13,13.60
2012,10,16,01,14,13.70
2012,10,16,01,15,13.70
2012,10,16,01,16,13.70
2012,10,16,01,17,13.70
2012,10,16,01,18,13.70
2012,10,16,01,19,13.80
2012,10,16,01,20,13.80
2012,10,16,01,21,13.90
2012,10,16,01,22,13.90
2012,10,16,01,23,13.90
2012,10,16,01,24,13.90
2012,10,16,01,25,13.90
2012,10,16,01,26,13.80
2012,10,16,01,27,13.80
2012,10,16,01,28,13.80
2012,10,16,01,29,13.80
2012,10,16,01,30,13.80
2012,10,16,01,31,13.80
2012,10,16,01,32,13.80
2012,10,16,01,33,13.80
2012,10,16,01,34,13.80
2012,10,16,01,35,13.80
2012,10,16,01,36,13.80
2012,10,16,01,37,13.80
2012,10,16,01,38,13.80
2012,10,16,01,39,13.80
2012,10,16,01,40,13.90
2012,10,16,01,41,13.90
2012,10,16,01,42,13.90
2012,10,16,01,43,14.00
2012,10,16,01,44,14.00
2012,10,16,01,45,14.00
2012,10,16,01,46,14.00
2012,10,16,01,47,13.90
2012,10,16,01,48,13.90
2012,10,16,01,49,13.90
2012,10,16,01,50,13.80
2012,10,16,01,51,13.80
2012,10,16,01,52,13.80
2012,10,16,01,53,13.80
2012,10,16,01,54,13.80
2012,10,16,01,55,13.80
2012,10,16,01,56,13.80
2012,10,16,01,57,13.80
2012,10,16,01,58,13.80
2012,10,16,01,59,13.90
2012,10,16,02,00,13.90
2012,10,16,02,01,13.90
2012,10,16,02,02,13.90
2012,10,16,02,03,14.00
2012,10,16,02,04,14.00
2012,10,16,02,05,14.00
2012,10,16,02,06,14.00
2012,10,16,02,07,14.00
2012,10,16,02,08,13.90
2012,10,16,02,09,13.90
2012,10,16,02,10,13.90
2012,10,16,02,11,13.90
2012,10,16,02,12,13.90
2012,10,16,02,13,13.90
2012,10,16,02,14,13.90
2012,10,16,02,15,13.90
2012,10,16,02,16,13.90
2012,10,16,02,17,13.90
2012,10,16,02,18,13.90
2012,10,16,02,19,13.80
2012,10,16,02,20,13.80
2012,10,16,02,21,13.90
2012,10,16,02,22,13.90
2012,10,16,02,23,13.90
2012,10,16,02,24,13.90
2012,10,16,02,25,14.00
2012,10,16,02,26,14.00
2012,10,16,02,27,14.00
2012,10,16,02,28,14.00
2012,10,16,02,29,14.00
2012,10,16,02,30,14.00
2012,10,16,02,31,13.90
2012,10,16,02,32,13.90
2012,10,16,02,33,13.80
2012,10,16,02,34,13.80
2012,10,16,02,35,13.80
2012,10,16,02,36,13.80
2012,10,16,02,37,13.70
2012,10,16,02,38,13.70
2012,10,16,02,39,13.70
2012,10,16,02,40,13.60
2012,10,16,02,41,13.60
2012,10,16,02,42,13.60
2012,10,16,02,43,13.50
2012,10,16,02,44,13.50
2012,10,16,02,45,13.40
2012,10,16,02,46,13.40
2012,10,16,02,47,13.40
2012,10,16,02,48,13.40
2012,10,16,02,49,13.30
2012,10,16,02,50,13.30
2012,10,16,02,51,13.30
2012,10,16,02,52,13.30
2012,10,16,02,53,13.30
2012,10,16,02,54,13.30
2012,10,16,02,55,13.30
2012,10,16,02,56,13.30
2012,10,16,02,57,13.30
2012,10,16,02,58,13.40
2012,10,16,02,59,13.40
2012,10,16,03,00,13.40
2012,10,16,03,01,13.40
2012,10,16,03,02,13.40
2012,10,16,03,03,13.40
2012,10,16,03,04,13.30
2012,10,16,03,05,13.30
2012,10,16,03,06,13.30
2012,10,16,03,07,13.30
2012,10,16,03,08,13.20
2012,10,16,03,09,13.20
2012,10,16,03,10,13.20
2012,10,16,03,11,13.10
2012,10,16,03,12,13.10
2012,10,16,03,13,13.00
2012,10,16,03,14,13.00
2012,10,16,03,15,12.90
2012,10,16,03,16,12.90
2012,10,16,03,17,12.80
2012,10,16,03,18,12.80
2012,10,16,03,19,12.80
2012,10,16,03,20,12.80
2012,10,16,03,21,12.80
2012,10,16,03,22,12.80
2012,10,16,03,23,12.80
2012,10,16,03,24,12.80
2012,10,16,03,25,12.70
2012,10,16,03,26,12.70
2012,10,16,03,27,12.70
2012,10,16,03,28,12.70
2012,10,16,03,29,12.70
2012,10,16,03,30,12.80
2012,10,16,03,31,12.80
2012,10,16,03,32,12.80
2012,10,16,03,33,12.80
2012,10,16,03,34,12.80
2012,10,16,03,35,12.80
2012,10,16,03,36,12.70
2012,10,16,03,37,12.70
2012,10,16,03,38,12.70
2012,10,16,03,39,12.70
2012,10,16,03,40,12.70
2012,10,16,03,41,12.70
2012,10,16,03,42,12.60
2012,10,16,03,43,12.60
2012,10,16,03,44,12.60
2012,10,16,03,45,12.50
2012,10,16,03,46,12.50
2012,10,16,03,47,12.50
2012,10,16,03,48,12.40
2012,10,16,03,49,12.50
2012,10,16,03,50,12.50
2012,10,16,03,51,12.40
2012,10,16,03,52,12.40
2012,10,16,03,53,12.40
2012,10,16,03,54,12.30
2012,10,16,03,55,12.30
2012,10,16,03,56,12.30
2012,10,16,03,57,12.20
2012,10,16,03,58,12.20
2012,10,16,03,59,12.20
2012,10,16,04,00,12.10
2012,10,16,04,01,12.10
2012,10,16,04,02,12.00
2012,10,16,04,03,12.00
2012,10,16,04,04,12.00
2012,10,16,04,05,11.90
2012,10,16,04,06,11.90
2012,10,16,04,07,11.90
2012,10,16,04,08,11.90
2012,10,16,04,09,11.90
2012,10,16,04,10,11.90
2012,10,16,04,11,11.90
2012,10,16,04,12,11.90
2012,10,16,04,13,11.90
2012,10,16,04,14,11.90
2012,10,16,04,15,11.80
2012,10,16,04,16,11.80
2012,10,16,04,17,11.80
2012,10,16,04,18,11.80
2012,10,16,04,19,11.80
2012,10,16,04,20,11.70
2012,10,16,04,21,11.70
2012,10,16,04,22,11.70
2012,10,16,04,23,11.70
2012,10,16,04,24,11.60
2012,10,16,04,25,11.60
2012,10,16,04,26,11.50
2012,10,16,04,27,11.40
2012,10,16,04,28,11.30
2012,10,16,04,29,11.30
2012,10,16,04,30,11.30
2012,10,16,04,31,11.20
2012,10,16,04,32,11.20
2012,10,16,04,33,11.20
2012,10,16,04,34,11.10
2012,10,16,04,35,11.10
2012,10,16,04,36,11.10
2012,10,16,04,37,11.10
2012,10,16,04,38,11.00
2012,10,16,04,39,11.00
2012,10,16,04,40,10.90
2012,10,16,04,41,10.90
2012,10,16,04,42,10.90
2012,10,16,04,43,10.90
2012,10,16,04,44,10.90
2012,10,16,04,45,10.90
2012,10,16,04,46,10.80
2012,10,16,04,47,10.80
2012,10,16,04,48,10.80
2012,10,16,04,49,10.80
2012,10,16,04,50,10.80
2012,10,16,04,51,10.80
2012,10,16,04,52,10.80
2012,10,16,04,53,10.80
2012,10,16,04,54,10.80
2012,10,16,04,55,10.70
2012,10,16,04,56,10.70
2012,10,16,04,57,10.70
2012,10,16,04,58,10.70
2012,10,16,04,59,10.70
2012,10,16,05,00,10.70
2012,10,16,05,01,10.70
2012,10,16,05,02,10.70
2012,10,16,05,03,10.70
2012,10,16,05,04,10.70
2012,10,16,05,05,10.70
2012,10,16,05,06,10.60
2012,10,16,05,07,10.60
2012,10,16,05,08,10.50
2012,10,16,05,09,10.50
2012,10,16,05,10,10.50
2012,10,16,05,11,10.50
2012,10,16,05,12,10.40
2012,10,16,05,13,10.40
2012,10,16,05,14,10.40
2012,10,16,05,15,10.40
2012,10,16,05,16,10.40
2012,10,16,05,17,10.30
2012,10,16,05,18,10.30
2012,10,16,05,19,10.30
2012,10,16,05,20,10.30
2012,10,16,05,21,10.30
2012,10,16,05,22,10.30
2012,10,16,05,23,10.30
2012,10,16,05,24,10.30
2012,10,16,05,25,10.30
2012,10,16,05,26,10.40
2012,10,16,05,27,10.40
2012,10,16,05,28,10.40
2012,10,16,05,29,10.30
2012,10,16,05,30,10.30
2012,10,16,05,31,10.30
2012,10,16,05,32,10.30
2012,10,16,05,33,10.30
2012,10,16,05,34,10.30
2012,10,16,05,35,10.30
2012,10,16,05,36,10.30
2012,10,16,05,37,10.20
2012,10,16,05,38,10.20
2012,10,16,05,39,10.20
2012,10,16,05,40,10.20
2012,10,16,05,41,10.20
2012,10,16,05,42,10.20
2012,10,16,05,43,10.10
2012,10,16,05,44,10.10
2012,10,16,05,45,10.10
2012,10,16,05,46,10.00
2012,10,16,05,47,10.00
2012,10,16,05,48,10.00
2012,10,16,05,49,10.00
2012,10,16,05,50,10.00
2012,10,16,05,51,10.00
2012,10,16,05,52,10.00
2012,10,16,05,53,9.90
2012,10,16,05,54,9.90
2012,10,16,05,55,9.90
2012,10,16,05,56,9.90
2012,10,16,05,57,9.90
2012,10,16,05,58,9.80
2012,10,16,05,59,9.80
2012,10,16,06,00,9.80
2012,10,16,06,01,9.80
2012,10,16,06,02,9.80
2012,10,16,06,03,9.80
2012,10,16,06,04,9.80
2012,10,16,06,05,9.70
2012,10,16,06,06,9.70
2012,10,16,06,07,9.70
2012,10,16,06,08,9.70
2012,10,16,06,09,9.70
2012,10,16,06,10,9.70
2012,10,16,06,11,9.70
2012,10,16,06,12,9.70
2012,10,16,06,13,9.70
2012,10,16,06,14,9.70
2012,10,16,06,15,9.70
2012,10,16,06,16,9.70
2012,10,16,06,17,9.70
2012,10,16,06,18,9.70
2012,10,16,06,19,9.70
2012,10,16,06,20,9.70
2012,10,16,06,21,9.70
2012,10,16,06,22,9.70
2012,10,16,06,23,9.70
2012,10,16,06,24,9.70
2012,10,16,06,25,9.70
2012,10,16,06,26,9.70
2012,10,16,06,27,9.70
2012,10,16,06,28,9.70
2012,10,16,06,29,9.70
2012,10,16,06,30,9.60
2012,10,16,06,31,9.60
2012,10,16,06,32,9.60
2012,10,16,06,33,9.60
2012,10,16,06,34,9.60
2012,10,16,06,35,9.60
2012,10,16,06,36,9.60
2012,10,16,06,37,9.60
2012,10,16,06,38,9.60
2012,10,16,06,39,9.60
2012,10,16,06,40,9.60
2012,10,16,06,41,9.50
2012,10,16,06,42,9.50
2012,10,16,06,43,9.50
2012,10,16,06,44,9.50
2012,10,16,06,45,9.50
2012,10,16,06,46,9.40
2012,10,16,06,47,9.40
2012,10,16,06,48,9.40
2012,10,16,06,49,9.40
2012,10,16,06,50,9.40
2012,10,16,06,51,9.40
2012,10,16,06,52,9.40
2012,10,16,06,53,9.40
2012,10,16,06,54,9.40
2012,10,16,06,55,9.40
2012,10,16,06,56,9.40
2012,10,16,06,57,9.40
2012,10,16,06,58,9.40
2012,10,16,06,59,9.40
2012,10,16,07,00,9.40
2012,10,16,07,01,9.40
2012,10,16,07,02,9.40
2012,10,16,07,03,9.40
2012,10,16,07,04,9.40
2012,10,16,07,05,9.40
2012,10,16,07,06,9.40
2012,10,16,07,07,9.40
2012,10,16,07,08,9.40
2012,10,16,07,09,9.40
2012,10,16,07,10,9.40
2012,10,16,07,11,9.40
2012,10,16,07,12,9.40
2012,10,16,07,13,9.40
2012,10,16,07,14,9.40
2012,10,16,07,15,9.40
2012,10,16,07,16,9.50
2012,10,16,07,17,9.50
2012,10,16,07,18,9.50
2012,10,16,07,19,9.50
2012,10,16,07,20,9.50
2012,10,16,07,21,9.50
2012,10,16,07,22,9.50
2012,10,16,07,23,9.50
2012,10,16,07,24,9.50
2012,10,16,07,25,9.50
2012,10,16,07,26,9.40
2012,10,16,07,27,9.40
2012,10,16,07,28,9.40
2012,10,16,07,29,9.40
2012,10,16,07,30,9.40
2012,10,16,07,31,9.40
2012,10,16,07,32,9.40
2012,10,16,07,33,9.40
2012,10,16,07,34,9.30
2012,10,16,07,35,9.30
2012,10,16,07,36,9.30
2012,10,16,07,37,9.30
2012,10,16,07,38,9.30
2012,10,16,07,39,9.30
2012,10,16,07,40,9.30
2012,10,16,07,41,9.30
2012,10,16,07,42,9.20
2012,10,16,07,43,9.20
2012,10,16,07,44,9.20
2012,10,16,07,45,9.20
2012,10,16,07,46,9.20
2012,10,16,07,47,9.20
2012,10,16,07,48,9.20
2012,10,16,07,49,9.20
2012,10,16,07,50,9.20
2012,10,16,07,51,9.20
2012,10,16,07,52,9.20
2012,10,16,07,53,9.20
2012,10,16,07,54,9.20
2012,10,16,07,55,9.20
2012,10,16,07,56,9.20
2012,10,16,07,57,9.20
2012,10,16,07,58,9.20
2012,10,16,07,59,9.20
2012,10,16,08,00,9.20
2012,10,16,08,01,9.20
2012,10,16,08,02,9.20
2012,10,16,08,03,9.20
2012,10,16,08,04,9.20
2012,10,16,08,05,9.20
2012,10,16,08,06,9.20
2012,10,16,08,07,9.10
2012,10,16,08,08,9.10
2012,10,16,08,09,9.10
2012,10,16,08,10,9.00
2012,10,16,08,11,9.00
2012,10,16,08,12,8.90
2012,10,16,08,13,8.90
2012,10,16,08,14,8.90
2012,10,16,08,15,8.90
2012,10,16,08,16,9.00
2012,10,16,08,17,9.00
2012,10,16,08,18,9.00
2012,10,16,08,19,9.00
2012,10,16,08,20,9.10
2012,10,16,08,21,9.10
2012,10,16,08,22,9.20
2012,10,16,08,23,9.20
2012,10,16,08,24,9.30
2012,10,16,08,25,9.30
2012,10,16,08,26,9.40
2012,10,16,08,27,9.40
2012,10,16,08,28,9.40
2012,10,16,08,29,9.40
2012,10,16,08,30,9.40
2012,10,16,08,31,9.40
2012,10,16,08,32,9.40
2012,10,16,08,33,9.40
2012,10,16,08,34,9.50
2012,10,16,08,35,9.50
2012,10,16,08,36,9.60
2012,10,16,08,37,9.60
2012,10,16,08,38,9.60
2012,10,16,08,39,9.60
2012,10,16,08,40,9.70
2012,10,16,08,41,9.70
2012,10,16,08,42,9.70
2012,10,16,08,43,9.70
2012,10,16,08,44,9.80
2012,10,16,08,45,9.90
2012,10,16,08,46,10.00
2012,10,16,08,47,10.10
2012,10,16,08,48,10.10
2012,10,16,08,49,10.20
2012,10,16,08,50,10.30
2012,10,16,08,51,10.30
2012,10,16,08,52,10.40
2012,10,16,08,53,10.50
2012,10,16,08,54,10.60
2012,10,16,08,55,10.60
2012,10,16,08,56,10.60
2012,10,16,08,57,10.60
2012,10,16,08,58,10.60
2012,10,16,08,59,10.60
2012,10,16,09,00,10.70
2012,10,16,09,01,10.70
2012,10,16,09,02,10.70
2012,10,16,09,03,10.70
2012,10,16,09,04,10.70
2012,10,16,09,05,10.60
2012,10,16,09,06,10.50
2012,10,16,09,07,10.50
2012,10,16,09,08,10.40
2012,10,16,09,09,10.50
2012,10,16,09,10,10.50
2012,10,16,09,11,10.60
2012,10,16,09,12,10.60
2012,10,16,09,13,10.70
2012,10,16,09,14,10.80
2012,10,16,09,15,10.90
2012,10,16,09,16,11.00
2012,10,16,09,17,11.20
2012,10,16,09,18,11.30
2012,10,16,09,19,11.40
2012,10,16,09,20,11.50
2012,10,16,09,21,11.60
2012,10,16,09,22,11.70
2012,10,16,09,23,11.80
2012,10,16,09,24,11.90
2012,10,16,09,25,12.00
2012,10,16,09,26,12.00
2012,10,16,09,27,12.10
2012,10,16,09,28,12.10
2012,10,16,09,29,12.20
2012,10,16,09,30,12.20
2012,10,16,09,31,12.30
2012,10,16,09,32,12.30
2012,10,16,09,33,12.30
2012,10,16,09,34,12.30
2012,10,16,09,35,12.40
2012,10,16,09,36,12.40
2012,10,16,09,37,12.40
2012,10,16,09,38,12.50
2012,10,16,09,39,12.50
2012,10,16,09,40,12.60
2012,10,16,09,41,12.60
2012,10,16,09,42,12.60
2012,10,16,09,43,12.70
2012,10,16,09,44,12.70
2012,10,16,09,45,12.80
2012,10,16,09,46,12.80
2012,10,16,09,47,12.90
2012,10,16,09,48,12.90
2012,10,16,09,49,12.90
2012,10,16,09,50,13.00
2012,10,16,09,51,13.00
2012,10,16,09,52,13.00
2012,10,16,09,53,13.10
2012,10,16,09,54,13.10
2012,10,16,09,55,13.20
2012,10,16,09,56,13.20
2012,10,16,09,57,13.20
2012,10,16,09,58,13.20
2012,10,16,09,59,13.20
2012,10,16,10,00,13.20
2012,10,16,10,01,13.20
2012,10,16,10,02,13.20
2012,10,16,10,03,13.20
2012,10,16,10,04,13.20
2012,10,16,10,05,13.30
2012,10,16,10,06,13.30
2012,10,16,10,07,13.30
2012,10,16,10,08,13.40
2012,10,16,10,09,13.40
2012,10,16,10,10,13.40
2012,10,16,10,11,13.40
2012,10,16,10,12,13.50
2012,10,16,10,13,13.50
2012,10,16,10,14,13.50
2012,10,16,10,15,13.50
2012,10,16,10,16,13.40
2012,10,16,10,17,13.40
2012,10,16,10,18,13.40
2012,10,16,10,19,13.40
2012,10,16,10,20,13.40
2012,10,16,10,21,13.40
2012,10,16,10,22,13.50
2012,10,16,10,23,13.60
2012,10,16,10,24,13.60
2012,10,16,10,25,13.60
2012,10,16,10,26,13.70
2012,10,16,10,27,13.60
2012,10,16,10,28,13.60
2012,10,16,10,29,13.70
2012,10,16,10,30,13.70
2012,10,16,10,31,13.80
2012,10,16,10,32,13.80
2012,10,16,10,33,13.90
2012,10,16,10,34,14.00
2012,10,16,10,35,14.00
2012,10,16,10,36,14.00
2012,10,16,10,37,14.10
2012,10,16,10,38,14.10
2012,10,16,10,39,14.10
2012,10,16,10,40,14.10
2012,10,16,10,41,14.10
2012,10,16,10,42,14.10
2012,10,16,10,43,14.10
2012,10,16,10,44,14.10
2012,10,16,10,45,14.10
2012,10,16,10,46,14.10
2012,10,16,10,47,14.10
2012,10,16,10,48,14.10
2012,10,16,10,49,14.10
2012,10,16,10,50,14.20
2012,10,16,10,51,14.20
2012,10,16,10,52,14.10
2012,10,16,10,53,14.10
2012,10,16,10,54,14.10
2012,10,16,10,55,14.20
2012,10,16,10,56,14.20
2012,10,16,10,57,14.20
2012,10,16,10,58,14.20
2012,10,16,10,59,14.20
2012,10,16,11,00,14.30
2012,10,16,11,01,14.30
2012,10,16,11,02,14.20
2012,10,16,11,03,14.20
2012,10,16,11,04,14.20
2012,10,16,11,05,14.20
2012,10,16,11,06,14.20
2012,10,16,11,07,14.20
2012,10,16,11,08,14.30
2012,10,16,11,09,14.30
2012,10,16,11,10,14.40
2012,10,16,11,11,14.40
2012,10,16,11,12,14.50
2012,10,16,11,13,14.60
2012,10,16,11,14,14.70
2012,10,16,11,15,14.70
2012,10,16,11,16,14.70
2012,10,16,11,17,14.70
2012,10,16,11,18,14.70
2012,10,16,11,19,14.60
2012,10,16,11,20,14.60
2012,10,16,11,21,14.60
2012,10,16,11,22,14.60
2012,10,16,11,23,14.70
2012,10,16,11,24,14.70
2012,10,16,11,25,14.70
2012,10,16,11,26,14.70
2012,10,16,11,27,14.70
2012,10,16,11,28,14.80
2012,10,16,11,29,14.70
2012,10,16,11,30,14.70
2012,10,16,11,31,14.80
2012,10,16,11,32,14.80
2012,10,16,11,33,14.70
2012,10,16,11,34,14.70
2012,10,16,11,35,14.70
2012,10,16,11,36,14.70
2012,10,16,11,37,14.70
2012,10,16,11,38,14.70
2012,10,16,11,39,14.60
2012,10,16,11,40,14.60
2012,10,16,11,41,14.60
2012,10,16,11,42,14.50
2012,10,16,11,43,14.40
2012,10,16,11,44,14.30
2012,10,16,11,45,14.20
2012,10,16,11,46,14.20
2012,10,16,11,47,14.20
2012,10,16,11,48,14.20
2012,10,16,11,49,14.30
2012,10,16,11,50,14.30
2012,10,16,11,51,14.40
2012,10,16,11,52,14.40
2012,10,16,11,53,14.50
2012,10,16,11,54,14.50
2012,10,16,11,55,14.60
2012,10,16,11,56,14.60
2012,10,16,11,57,14.70
2012,10,16,11,58,14.70
2012,10,16,11,59,14.80
2012,10,16,12,00,14.90
2012,10,16,12,01,14.90
2012,10,16,12,02,15.10
2012,10,16,12,03,15.10
2012,10,16,12,04,15.20
2012,10,16,12,05,15.20
2012,10,16,12,06,15.30
2012,10,16,12,07,15.30
2012,10,16,12,08,15.20
2012,10,16,12,09,15.20
2012,10,16,12,10,15.10
2012,10,16,12,11,15.00
2012,10,16,12,12,15.00
2012,10,16,12,13,14.90
2012,10,16,12,14,14.90
2012,10,16,12,15,15.00
2012,10,16,12,16,15.00
2012,10,16,12,17,15.00
2012,10,16,12,18,15.00
2012,10,16,12,19,15.10
2012,10,16,12,20,15.10
2012,10,16,12,21,15.10
2012,10,16,12,22,15.20
2012,10,16,12,23,15.30
2012,10,16,12,24,15.40
2012,10,16,12,25,15.50
2012,10,16,12,26,15.50
2012,10,16,12,27,15.40
2012,10,16,12,28,15.30
2012,10,16,12,29,15.30
2012,10,16,12,30,15.20
2012,10,16,12,31,15.10
2012,10,16,12,32,15.00
2012,10,16,12,33,15.00
2012,10,16,12,34,14.90
2012,10,16,12,35,14.90
2012,10,16,12,36,14.80
2012,10,16,12,37,14.80
2012,10,16,12,38,14.80
2012,10,16,12,39,14.70
2012,10,16,12,40,14.70
2012,10,16,12,41,14.60
2012,10,16,12,42,14.60
2012,10,16,12,43,14.50
2012,10,16,12,44,14.40
2012,10,16,12,45,14.30
2012,10,16,12,46,14.30
2012,10,16,12,47,14.30
2012,10,16,12,48,14.30
2012,10,16,12,49,14.20
2012,10,16,12,50,14.20
2012,10,16,12,51,14.20
2012,10,16,12,52,14.20
2012,10,16,12,53,14.20
2012,10,16,12,54,14.20
2012,10,16,12,55,14.20
2012,10,16,12,56,14.20
2012,10,16,12,57,14.20
2012,10,16,12,58,14.30
2012,10,16,12,59,14.30
2012,10,16,13,00,14.30
2012,10,16,13,01,14.30
2012,10,16,13,02,14.30
2012,10,16,13,03,14.30
2012,10,16,13,04,14.30
2012,10,16,13,05,14.30
2012,10,16,13,06,14.30
2012,10,16,13,07,14.40
2012,10,16,13,08,14.50
2012,10,16,13,09,14.60
2012,10,16,13,10,14.70
2012,10,16,13,11,14.70
2012,10,16,13,12,14.80
2012,10,16,13,13,14.80
2012,10,16,13,14,14.90
2012,10,16,13,15,15.00
2012,10,16,13,16,15.00
2012,10,16,13,17,15.10
2012,10,16,13,18,15.10
2012,10,16,13,19,15.10
2012,10,16,13,20,15.20
2012,10,16,13,21,15.20
2012,10,16,13,22,15.20
2012,10,16,13,23,15.30
2012,10,16,13,24,15.30
2012,10,16,13,25,15.20
2012,10,16,13,26,15.20
2012,10,16,13,27,15.20
2012,10,16,13,28,15.20
2012,10,16,13,29,15.20
2012,10,16,13,30,15.10
2012,10,16,13,31,15.10
2012,10,16,13,32,15.00
2012,10,16,13,33,14.90
2012,10,16,13,34,14.90
2012,10,16,13,35,14.90
2012,10,16,13,36,14.90
2012,10,16,13,37,14.80
2012,10,16,13,38,14.80
2012,10,16,13,39,14.70
2012,10,16,13,40,14.70
2012,10,16,13,41,14.70
2012,10,16,13,42,14.80
2012,10,16,13,43,14.80
2012,10,16,13,44,14.80
2012,10,16,13,45,14.80
2012,10,16,13,46,14.90
2012,10,16,13,47,14.90
2012,10,16,13,48,15.00
2012,10,16,13,49,15.00
2012,10,16,13,50,15.00
2012,10,16,13,51,15.00
2012,10,16,13,52,15.00
2012,10,16,13,53,15.00
2012,10,16,13,54,15.00
2012,10,16,13,55,14.90
2012,10,16,13,56,14.90
2012,10,16,13,57,14.90
2012,10,16,13,58,15.00
2012,10,16,13,59,15.00
2012,10,16,14,00,15.00
2012,10,16,14,01,15.00
2012,10,16,14,02,15.00
2012,10,16,14,03,14.90
2012,10,16,14,04,15.00
2012,10,16,14,05,15.00
2012,10,16,14,06,15.00
2012,10,16,14,07,15.00
2012,10,16,14,08,15.10
2012,10,16,14,09,15.10
2012,10,16,14,10,15.10
2012,10,16,14,11,15.10
2012,10,16,14,12,15.00
2012,10,16,14,13,15.00
2012,10,16,14,14,14.90
2012,10,16,14,15,14.80
2012,10,16,14,16,14.70
2012,10,16,14,17,14.60
2012,10,16,14,18,14.60
2012,10,16,14,19,14.60
2012,10,16,14,20,14.60
2012,10,16,14,21,14.60
2012,10,16,14,22,14.60
2012,10,16,14,23,14.70
2012,10,16,14,24,14.80
2012,10,16,14,25,14.90
2012,10,16,14,26,15.00
2012,10,16,14,27,15.00
2012,10,16,14,28,15.10
2012,10,16,14,29,15.20
2012,10,16,14,30,15.30
2012,10,16,14,31,15.30
2012,10,16,14,32,15.30
2012,10,16,14,33,15.40
2012,10,16,14,34,15.40
2012,10,16,14,35,15.50
2012,10,16,14,36,15.50
2012,10,16,14,37,15.50
2012,10,16,14,38,15.50
2012,10,16,14,39,15.50
2012,10,16,14,40,15.40
2012,10,16,14,41,15.40
2012,10,16,14,42,15.50
2012,10,16,14,43,15.50
2012,10,16,14,44,15.50
2012,10,16,14,45,15.50
2012,10,16,14,46,15.60
2012,10,16,14,47,15.60
2012,10,16,14,48,15.60
2012,10,16,14,49,15.50
2012,10,16,14,50,15.40
2012,10,16,14,51,15.40
2012,10,16,14,52,15.40
2012,10,16,14,53,15.40
2012,10,16,14,54,15.40
2012,10,16,14,55,15.30
2012,10,16,14,56,15.20
2012,10,16,14,57,14.90
2012,10,16,14,58,14.60
2012,10,16,14,59,14.40
2012,10,16,15,00,14.10
2012,10,16,15,01,13.80
2012,10,16,15,02,13.50
2012,10,16,15,03,13.30
2012,10,16,15,04,13.20
2012,10,16,15,05,13.00
2012,10,16,15,06,12.90
2012,10,16,15,07,12.70
2012,10,16,15,08,12.60
2012,10,16,15,09,12.50
2012,10,16,15,10,12.40
2012,10,16,15,11,12.30
2012,10,16,15,12,12.30
2012,10,16,15,13,12.20
2012,10,16,15,14,12.10
2012,10,16,15,15,12.10
2012,10,16,15,16,12.00
2012,10,16,15,17,12.00
2012,10,16,15,18,11.90
2012,10,16,15,19,11.90
2012,10,16,15,20,11.80
2012,10,16,15,21,11.70
2012,10,16,15,22,11.60
2012,10,16,15,23,11.50
2012,10,16,15,24,11.40
2012,10,16,15,25,11.30
2012,10,16,15,26,11.20
2012,10,16,15,27,11.10
2012,10,16,15,28,11.10
2012,10,16,15,29,11.10
2012,10,16,15,30,11.10
2012,10,16,15,31,11.10
2012,10,16,15,32,11.00
2012,10,16,15,33,11.00
2012,10,16,15,34,10.90
2012,10,16,15,35,10.90
2012,10,16,15,36,11.00
2012,10,16,15,37,11.00
2012,10,16,15,38,11.10
2012,10,16,15,39,11.10
2012,10,16,15,40,11.10
2012,10,16,15,41,11.10
2012,10,16,15,42,11.10
2012,10,16,15,43,11.00
2012,10,16,15,44,11.00
2012,10,16,15,45,11.10
2012,10,16,15,46,11.10
2012,10,16,15,47,11.10
2012,10,16,15,48,11.10
2012,10,16,15,49,11.20
2012,10,16,15,50,11.20
2012,10,16,15,51,11.30
2012,10,16,15,52,11.40
2012,10,16,15,53,11.50
2012,10,16,15,54,11.50
2012,10,16,15,55,11.60
2012,10,16,15,56,11.70
2012,10,16,15,57,11.80
2012,10,16,15,58,11.80
2012,10,16,15,59,11.80
2012,10,16,16,00,11.80
2012,10,16,16,01,11.90
2012,10,16,16,02,11.90
2012,10,16,16,03,12.00
2012,10,16,16,04,12.10
2012,10,16,16,05,12.20
2012,10,16,16,06,12.20
2012,10,16,16,07,12.30
2012,10,16,16,08,12.30
2012,10,16,16,09,12.40
2012,10,16,16,10,12.40
2012,10,16,16,11,12.40
2012,10,16,16,12,12.40
2012,10,16,16,13,12.50
2012,10,16,16,14,12.50
2012,10,16,16,15,12.60
2012,10,16,16,16,12.60
2012,10,16,16,17,12.60
2012,10,16,16,18,12.60
2012,10,16,16,19,12.60
2012,10,16,16,20,12.60
2012,10,16,16,21,12.50
2012,10,16,16,22,12.50
2012,10,16,16,23,12.50
2012,10,16,16,24,12.50
2012,10,16,16,25,12.50
2012,10,16,16,26,12.60
2012,10,16,16,27,12.60
2012,10,16,16,28,12.70
2012,10,16,16,29,12.70
2012,10,16,16,30,12.70
2012,10,16,16,31,12.70
2012,10,16,16,32,12.70
2012,10,16,16,33,12.70
2012,10,16,16,34,12.70
2012,10,16,16,35,12.70
2012,10,16,16,36,12.70
2012,10,16,16,37,12.80
2012,10,16,16,38,12.80
2012,10,16,16,39,12.70
2012,10,16,16,40,12.50
2012,10,16,16,41,12.40
2012,10,16,16,42,12.30
2012,10,16,16,43,12.10
2012,10,16,16,44,12.00
2012,10,16,16,45,11.90
2012,10,16,16,46,11.90
2012,10,16,16,47,11.90
2012,10,16,16,48,11.80
2012,10,16,16,49,11.80
2012,10,16,16,50,11.80
2012,10,16,16,51,11.70
2012,10,16,16,52,11.70
2012,10,16,16,53,11.70
2012,10,16,16,54,11.70
2012,10,16,16,55,11.70
2012,10,16,16,56,11.60
2012,10,16,16,57,11.60
2012,10,16,16,58,11.50
2012,10,16,16,59,11.50
2012,10,16,17,00,11.50
2012,10,16,17,01,11.40
2012,10,16,17,02,11.40
2012,10,16,17,03,11.40
2012,10,16,17,04,11.40
2012,10,16,17,05,11.30
2012,10,16,17,06,11.20
2012,10,16,17,07,11.10
2012,10,16,17,08,11.00
2012,10,16,17,09,10.90
2012,10,16,17,10,10.80
2012,10,16,17,11,10.80
2012,10,16,17,12,10.80
2012,10,16,17,13,10.80
2012,10,16,17,14,10.70
2012,10,16,17,15,10.70
2012,10,16,17,16,10.70
2012,10,16,17,17,10.70
2012,10,16,17,18,10.70
2012,10,16,17,19,10.70
2012,10,16,17,20,10.70
2012,10,16,17,21,10.70
2012,10,16,17,22,10.80
2012,10,16,17,23,10.80
2012,10,16,17,24,10.80
2012,10,16,17,25,10.90
2012,10,16,17,26,10.90